Time,TemperatureF,DewpointF,PressureIn,WindDirection,WindDirectionDegrees,WindSpeedMPH,WindSpeedGustMPH,Humidity,HourlyPrecipIn,Conditions,Clouds,dailyrainin,SoftwareType,DateUTC
2013-03-20 00:00:00,41.4,38.1,29.96,West,267,0.0,0.0,88,0.00,,,0.44,meteohub,2013-03-20 04:00:00,
2013-03-20 00:01:00,41.2,37.9,29.96,West,267,0.0,0.0,88,0.00,,,0.44,meteohub,2013-03-20 04:01:00,
2013-03-20 00:06:00,41.0,37.9,29.96,West,267,0.0,0.0,89,0.00,,,0.44,meteohub,2013-03-20 04:06:00,
2013-03-20 00:11:00,40.8,37.8,29.96,West,267,0.0,0.0,89,0.00,,,0.00,meteohub,2013-03-20 04:11:00,
2013-03-20 00:16:00,40.6,37.6,29.96,West,267,0.0,0.0,89,0.00,,,0.00,meteohub,2013-03-20 04:16:00,
2013-03-20 00:21:00,40.5,37.8,29.96,West,267,0.0,0.0,90,0.00,,,0.00,meteohub,2013-03-20 04:21:00,
2013-03-20 00:26:00,40.5,37.8,29.96,West,267,0.0,0.0,90,0.00,,,0.00,meteohub,2013-03-20 04:26:00,
2013-03-20 00:32:00,40.3,37.6,29.96,West,267,0.0,0.0,90,0.00,,,0.00,meteohub,2013-03-20 04:32:00,
2013-03-20 00:37:00,39.7,36.7,29.96,West,267,0.0,0.0,89,0.00,,,0.00,meteohub,2013-03-20 04:37:00,
2013-03-20 00:42:00,39.6,36.9,29.96,West,267,0.0,0.0,90,0.00,,,0.00,meteohub,2013-03-20 04:42:00,
2013-03-20 00:47:00,39.6,36.9,29.96,West,267,0.0,0.0,90,0.00,,,0.00,meteohub,2013-03-20 04:47:00,
2013-03-20 00:52:00,39.4,37.0,29.96,West,267,0.0,0.0,91,0.00,,,0.00,meteohub,2013-03-20 04:52:00,
2013-03-20 00:57:00,39.4,37.0,29.96,West,267,0.0,0.0,91,0.00,,,0.00,meteohub,2013-03-20 04:57:00,
2013-03-20 01:02:00,39.2,36.9,29.97,West,267,0.0,0.0,91,0.00,,,0.00,meteohub,2013-03-20 05:02:00,
2013-03-20 01:07:00,38.8,36.5,29.97,West,267,0.0,0.0,91,0.00,,,0.00,meteohub,2013-03-20 05:07:00,
2013-03-20 01:12:00,38.8,36.5,29.97,West,267,0.0,0.0,91,0.00,,,0.00,meteohub,2013-03-20 05:12:00,
2013-03-20 01:17:00,38.8,36.7,29.97,West,267,0.0,0.0,92,0.00,,,0.00,meteohub,2013-03-20 05:17:00,
2013-03-20 01:22:00,39.0,36.9,29.97,West,267,0.0,0.0,92,0.00,,,0.00,meteohub,2013-03-20 05:22:00,
2013-03-20 01:27:00,39.4,37.6,29.97,West,267,0.0,0.0,93,0.00,,,0.00,meteohub,2013-03-20 05:27:00,
2013-03-20 01:32:00,39.6,37.8,29.97,West,267,0.0,0.0,93,0.00,,,0.00,meteohub,2013-03-20 05:32:00,
2013-03-20 01:37:00,39.7,37.9,29.97,West,267,0.0,0.0,93,0.00,,,0.00,meteohub,2013-03-20 05:37:00,
2013-03-20 01:42:00,39.7,37.6,29.97,West,267,0.0,0.0,92,0.00,,,0.00,meteohub,2013-03-20 05:42:00,
2013-03-20 01:47:00,39.7,37.6,29.97,West,267,0.0,0.0,92,0.00,,,0.00,meteohub,2013-03-20 05:47:00,
2013-03-20 01:52:00,39.7,37.6,29.97,West,267,0.0,0.0,92,0.00,,,0.00,meteohub,2013-03-20 05:52:00,
2013-03-20 01:57:00,39.9,37.8,29.97,West,267,0.0,0.0,92,0.00,,,0.00,meteohub,2013-03-20 05:57:00,
2013-03-20 02:02:00,40.1,37.9,29.97,West,267,0.0,0.0,92,0.00,,,0.00,meteohub,2013-03-20 06:02:00,
2013-03-20 02:07:00,40.3,38.1,29.97,West,267,0.0,0.0,92,0.00,,,0.00,meteohub,2013-03-20 06:07:00,
2013-03-20 02:12:00,40.3,38.1,29.96,West,267,0.0,0.0,92,0.00,,,0.00,meteohub,2013-03-20 06:12:00,
2013-03-20 02:17:00,40.5,38.3,29.96,West,267,0.0,0.0,92,0.00,,,0.00,meteohub,2013-03-20 06:17:00,
2013-03-20 02:22:00,40.3,37.9,29.97,West,267,0.0,0.0,91,0.00,,,0.00,meteohub,2013-03-20 06:22:00,
2013-03-20 02:27:00,40.3,37.0,29.97,West,267,0.0,0.0,88,0.00,,,0.00,meteohub,2013-03-20 06:27:00,
2013-03-20 02:32:00,40.6,37.4,29.97,West,267,0.0,0.0,88,0.00,,,0.00,meteohub,2013-03-20 06:32:00,
2013-03-20 02:37:00,41.2,38.1,29.97,West,267,0.0,0.0,89,0.00,,,0.00,meteohub,2013-03-20 06:37:00,
2013-03-20 02:42:00,41.2,36.7,29.97,West,267,0.0,0.0,84,0.00,,,0.00,meteohub,2013-03-20 06:42:00,
2013-03-20 02:47:00,41.7,36.0,29.97,West,267,0.0,0.0,80,0.00,,,0.00,meteohub,2013-03-20 06:47:00,
2013-03-20 02:52:00,42.3,36.0,29.97,West,267,0.0,0.0,78,0.00,,,0.00,meteohub,2013-03-20 06:52:00,
2013-03-20 02:57:00,42.4,37.4,29.98,West,267,0.0,0.0,82,0.00,,,0.00,meteohub,2013-03-20 06:57:00,
2013-03-20 03:02:00,42.6,38.1,29.98,West,267,0.0,0.0,84,0.00,,,0.00,meteohub,2013-03-20 07:02:00,
2013-03-20 03:07:00,43.0,38.5,29.98,West,267,0.0,0.0,84,0.00,,,0.00,meteohub,2013-03-20 07:07:00,
2013-03-20 03:12:00,42.8,37.9,29.98,West,267,0.0,0.0,83,0.00,,,0.00,meteohub,2013-03-20 07:12:00,
2013-03-20 03:17:00,42.8,37.8,29.98,West,267,0.0,0.0,82,0.00,,,0.00,meteohub,2013-03-20 07:17:00,
2013-03-20 03:22:00,43.0,37.9,29.98,West,267,0.0,0.0,82,0.00,,,0.00,meteohub,2013-03-20 07:22:00,
2013-03-20 03:27:00,43.0,37.6,29.98,West,267,0.0,0.0,81,0.00,,,0.00,meteohub,2013-03-20 07:27:00,
2013-03-20 03:32:00,43.0,37.6,29.98,West,267,0.0,0.0,81,0.00,,,0.00,meteohub,2013-03-20 07:32:00,
2013-03-20 03:37:00,42.8,36.7,29.98,West,267,0.0,0.0,79,0.00,,,0.00,meteohub,2013-03-20 07:37:00,
2013-03-20 03:42:00,42.6,36.3,29.98,North,5,0.0,0.0,78,0.00,,,0.00,meteohub,2013-03-20 07:42:00,
2013-03-20 03:47:00,42.4,35.8,29.97,North,5,0.0,0.0,77,0.00,,,0.00,meteohub,2013-03-20 07:47:00,
2013-03-20 03:52:00,42.6,36.5,29.98,North,5,0.0,0.0,79,0.00,,,0.00,meteohub,2013-03-20 07:52:00,
2013-03-20 03:57:00,42.6,36.5,29.98,North,5,0.0,0.0,79,0.00,,,0.00,meteohub,2013-03-20 07:57:00,
2013-03-20 04:02:00,42.6,36.3,29.98,North,5,0.0,0.0,78,0.00,,,0.00,meteohub,2013-03-20 08:02:00,
2013-03-20 04:07:00,42.4,36.3,29.98,North,5,0.0,0.0,79,0.00,,,0.00,meteohub,2013-03-20 08:07:00,
2013-03-20 04:12:00,42.4,36.1,29.98,North,5,0.0,0.0,78,0.00,,,0.00,meteohub,2013-03-20 08:12:00,
2013-03-20 04:17:00,42.4,36.7,29.98,North,5,0.0,0.0,80,0.00,,,0.00,meteohub,2013-03-20 08:17:00,
2013-03-20 04:22:00,42.3,36.0,29.98,North,5,0.0,0.0,78,0.00,,,0.00,meteohub,2013-03-20 08:22:00,
2013-03-20 04:27:00,42.3,36.0,29.98,North,5,0.0,0.0,78,0.00,,,0.00,meteohub,2013-03-20 08:27:00,
2013-03-20 04:32:00,42.1,36.0,29.98,North,5,0.0,0.0,79,0.00,,,0.00,meteohub,2013-03-20 08:32:00,
2013-03-20 04:37:00,41.9,35.8,29.98,North,5,0.0,0.0,79,0.00,,,0.00,meteohub,2013-03-20 08:37:00,
2013-03-20 04:42:00,41.7,35.8,29.98,North,5,0.0,0.0,79,0.00,,,0.00,meteohub,2013-03-20 08:42:00,
2013-03-20 04:47:00,41.5,35.2,29.98,North,5,0.0,0.0,78,0.00,,,0.00,meteohub,2013-03-20 08:47:00,
2013-03-20 04:52:00,41.4,35.1,29.98,North,5,0.0,0.0,78,0.00,,,0.00,meteohub,2013-03-20 08:52:00,
2013-03-20 04:57:00,41.2,34.9,29.98,North,5,0.0,0.0,78,0.00,,,0.00,meteohub,2013-03-20 08:57:00,
2013-03-20 05:02:00,41.0,35.1,29.99,North,5,0.0,0.0,79,0.00,,,0.00,meteohub,2013-03-20 09:02:00,
2013-03-20 05:07:00,40.8,34.9,29.99,North,5,0.0,0.0,79,0.00,,,0.00,meteohub,2013-03-20 09:07:00,
2013-03-20 05:12:00,40.5,34.2,29.99,North,5,0.0,0.0,78,0.00,,,0.00,meteohub,2013-03-20 09:12:00,
2013-03-20 05:17:00,40.1,33.8,29.99,North,5,0.0,0.0,78,0.00,,,0.00,meteohub,2013-03-20 09:17:00,
2013-03-20 05:22:00,39.7,33.4,29.98,North,5,0.0,0.0,78,0.00,,,0.00,meteohub,2013-03-20 09:22:00,
2013-03-20 05:27:00,39.6,32.9,29.99,North,5,0.0,0.0,77,0.00,,,0.00,meteohub,2013-03-20 09:27:00,
2013-03-20 05:33:00,39.2,32.4,29.99,North,5,0.0,0.0,76,0.00,,,0.00,meteohub,2013-03-20 09:33:00,
2013-03-20 05:38:00,38.8,32.5,29.99,North,5,0.0,0.0,78,0.00,,,0.00,meteohub,2013-03-20 09:38:00,
2013-03-20 05:43:00,38.7,32.7,29.99,North,5,0.0,0.0,79,0.00,,,0.00,meteohub,2013-03-20 09:43:00,
2013-03-20 05:48:00,38.3,32.4,30.00,North,5,0.0,0.0,79,0.00,,,0.00,meteohub,2013-03-20 09:48:00,
2013-03-20 05:53:00,38.1,32.2,30.00,North,5,0.0,0.0,79,0.00,,,0.00,meteohub,2013-03-20 09:53:00,
2013-03-20 05:59:00,37.9,32.0,30.01,North,5,0.0,0.0,79,0.00,,,0.00,meteohub,2013-03-20 09:59:00,
2013-03-20 06:04:00,37.9,33.3,30.01,North,5,0.0,0.0,83,0.00,,,0.00,meteohub,2013-03-20 10:04:00,
2013-03-20 06:09:00,38.1,33.4,30.01,North,5,0.0,0.0,83,0.00,,,0.00,meteohub,2013-03-20 10:09:00,
2013-03-20 06:14:00,38.3,33.6,30.01,North,5,0.0,0.0,83,0.00,,,0.00,meteohub,2013-03-20 10:14:00,
2013-03-20 06:19:00,38.3,32.7,30.02,North,5,0.0,0.0,80,0.00,,,0.00,meteohub,2013-03-20 10:19:00,
2013-03-20 06:24:00,38.1,32.2,30.02,North,5,0.0,0.0,79,0.00,,,0.00,meteohub,2013-03-20 10:24:00,
2013-03-20 06:29:00,38.1,32.5,30.02,North,5,0.0,0.0,80,0.00,,,0.00,meteohub,2013-03-20 10:29:00,
2013-03-20 06:34:00,38.1,32.5,30.02,North,5,0.0,0.0,80,0.00,,,0.00,meteohub,2013-03-20 10:34:00,
2013-03-20 06:39:00,37.9,32.4,30.03,North,5,0.0,0.0,80,0.00,,,0.00,meteohub,2013-03-20 10:39:00,
2013-03-20 06:44:00,37.8,31.5,30.03,North,5,0.0,0.0,78,0.00,,,0.00,meteohub,2013-03-20 10:44:00,
2013-03-20 06:49:00,37.8,31.3,30.03,North,5,0.0,0.0,77,0.00,,,0.00,meteohub,2013-03-20 10:49:00,
2013-03-20 06:54:00,37.6,31.1,30.03,North,5,0.0,0.0,77,0.00,,,0.00,meteohub,2013-03-20 10:54:00,
2013-03-20 06:59:00,37.4,31.1,30.04,North,5,0.0,0.0,78,0.00,,,0.00,meteohub,2013-03-20 10:59:00,
2013-03-20 07:04:00,37.2,30.9,30.04,North,5,0.0,0.0,78,0.00,,,0.00,meteohub,2013-03-20 11:04:00,
2013-03-20 07:09:00,36.9,30.4,30.04,North,5,0.0,0.0,77,0.00,,,0.00,meteohub,2013-03-20 11:09:00,
2013-03-20 07:14:00,36.7,29.8,30.04,North,5,0.0,0.0,76,0.00,,,0.00,meteohub,2013-03-20 11:14:00,
2013-03-20 07:19:00,36.1,29.3,30.04,North,5,0.0,0.0,76,0.00,,,0.00,meteohub,2013-03-20 11:19:00,
2013-03-20 07:24:00,36.0,28.8,30.04,North,5,0.0,0.0,75,0.00,,,0.00,meteohub,2013-03-20 11:24:00,
2013-03-20 07:29:00,35.4,27.7,30.04,North,5,0.0,0.0,73,0.00,,,0.00,meteohub,2013-03-20 11:29:00,
2013-03-20 07:34:00,35.2,28.0,30.04,North,5,0.0,0.0,75,0.00,,,0.00,meteohub,2013-03-20 11:34:00,
2013-03-20 07:39:00,35.1,28.6,30.05,North,5,0.0,0.0,77,0.00,,,0.00,meteohub,2013-03-20 11:39:00,
2013-03-20 07:44:00,35.1,29.1,30.05,North,5,0.0,0.0,79,0.00,,,0.00,meteohub,2013-03-20 11:44:00,
2013-03-20 07:49:00,35.1,29.5,30.05,North,5,0.0,0.0,80,0.00,,,0.00,meteohub,2013-03-20 11:49:00,
2013-03-20 07:54:00,35.2,30.4,30.05,North,5,0.0,0.0,82,0.00,,,0.00,meteohub,2013-03-20 11:54:00,
2013-03-20 07:59:00,35.4,30.6,30.06,North,5,0.0,0.0,82,0.00,,,0.00,meteohub,2013-03-20 11:59:00,
2013-03-20 08:04:00,35.6,30.7,30.06,North,5,0.0,0.0,82,0.00,,,0.00,meteohub,2013-03-20 12:04:00,
2013-03-20 08:09:00,35.8,31.1,30.06,North,5,0.0,0.0,83,0.00,,,0.00,meteohub,2013-03-20 12:09:00,
2013-03-20 08:14:00,36.1,31.5,30.06,North,5,0.0,0.0,83,0.00,,,0.00,meteohub,2013-03-20 12:14:00,
2013-03-20 08:19:00,37.4,33.3,30.07,North,5,0.0,0.0,85,0.00,,,0.00,meteohub,2013-03-20 12:19:00,
2013-03-20 08:24:00,38.1,33.8,30.07,North,5,0.0,0.0,84,0.00,,,0.00,meteohub,2013-03-20 12:24:00,
2013-03-20 08:29:00,38.8,33.8,30.07,North,5,0.0,0.0,82,0.00,,,0.00,meteohub,2013-03-20 12:29:00,
2013-03-20 08:34:00,39.7,33.8,30.07,North,5,0.0,0.0,79,0.00,,,0.00,meteohub,2013-03-20 12:34:00,
2013-03-20 08:39:00,40.6,34.0,30.08,North,5,0.0,0.0,77,0.00,,,0.00,meteohub,2013-03-20 12:39:00,
2013-03-20 08:44:00,41.5,34.5,30.08,North,5,0.0,0.0,76,0.00,,,0.00,meteohub,2013-03-20 12:44:00,
2013-03-20 08:49:00,42.3,35.2,30.08,North,5,0.0,0.0,76,0.00,,,0.00,meteohub,2013-03-20 12:49:00,
2013-03-20 08:54:00,43.3,34.5,30.08,North,5,0.0,0.0,71,0.00,,,0.00,meteohub,2013-03-20 12:54:00,
2013-03-20 08:59:00,44.2,33.6,30.08,North,5,0.0,0.0,66,0.00,,,0.00,meteohub,2013-03-20 12:59:00,
2013-03-20 09:04:00,45.3,34.3,30.08,ENE,67,0.0,0.0,65,0.00,,,0.00,meteohub,2013-03-20 13:04:00,
2013-03-20 09:09:00,46.4,31.1,30.08,East,83,0.0,0.0,55,0.00,,,0.00,meteohub,2013-03-20 13:09:00,
2013-03-20 09:14:00,47.1,30.4,30.08,NNW,330,0.0,0.0,52,0.00,,,0.00,meteohub,2013-03-20 13:14:00,
2013-03-20 09:19:00,47.8,27.5,30.07,SE,127,0.0,0.0,45,0.00,,,0.00,meteohub,2013-03-20 13:19:00,
2013-03-20 09:24:00,48.2,26.8,30.08,ENE,60,0.0,0.0,43,0.00,,,0.00,meteohub,2013-03-20 13:24:00,
2013-03-20 09:29:00,48.7,26.1,30.08,East,98,1.0,1.0,41,0.00,,,0.00,meteohub,2013-03-20 13:29:00,
2013-03-20 09:34:00,49.5,26.8,30.09,NNE,17,0.0,1.0,41,0.00,,,0.00,meteohub,2013-03-20 13:34:00,
2013-03-20 09:39:00,49.6,25.0,30.09,ESE,107,0.0,1.0,38,0.00,,,0.00,meteohub,2013-03-20 13:39:00,
2013-03-20 09:44:00,49.8,25.9,30.09,ENE,60,0.0,1.0,39,0.00,,,0.00,meteohub,2013-03-20 13:44:00,
2013-03-20 09:49:00,49.8,24.6,30.09,NE,35,0.0,9.0,37,0.00,,,0.00,meteohub,2013-03-20 13:49:00,
2013-03-20 09:54:00,49.8,23.9,30.09,NE,53,0.0,9.0,36,0.00,,,0.00,meteohub,2013-03-20 13:54:00,
2013-03-20 09:59:00,49.5,23.5,30.09,East,96,0.0,9.0,36,0.00,,,0.00,meteohub,2013-03-20 13:59:00,
2013-03-20 10:04:00,49.5,24.3,30.09,NE,38,0.0,9.0,37,0.00,,,0.00,meteohub,2013-03-20 14:04:00,
2013-03-20 10:09:00,49.6,25.7,30.09,North,355,0.0,11.0,39,0.00,,,0.00,meteohub,2013-03-20 14:09:00,
2013-03-20 10:14:00,49.8,23.9,30.10,NE,51,0.0,11.0,36,0.00,,,0.00,meteohub,2013-03-20 14:14:00,
2013-03-20 10:19:00,49.8,25.2,30.10,NNE,29,0.0,11.0,38,0.00,,,0.00,meteohub,2013-03-20 14:19:00,
2013-03-20 10:24:00,49.8,25.2,30.10,NNE,15,0.0,8.0,38,0.00,,,0.00,meteohub,2013-03-20 14:24:00,
2013-03-20 10:29:00,50.5,25.2,30.09,NE,54,0.0,8.0,37,0.00,,,0.00,meteohub,2013-03-20 14:29:00,
2013-03-20 10:34:00,51.3,24.6,30.09,ENE,67,0.0,8.0,35,0.00,,,0.00,meteohub,2013-03-20 14:34:00,
2013-03-20 10:39:00,51.6,26.2,30.09,NNW,346,0.0,6.0,37,0.00,,,0.00,meteohub,2013-03-20 14:39:00,
2013-03-20 10:44:00,52.3,24.1,30.09,SW,225,0.0,6.0,33,0.00,,,0.00,meteohub,2013-03-20 14:44:00,
2013-03-20 10:49:00,52.9,28.0,30.09,West,276,0.0,8.0,38,0.00,,,0.00,meteohub,2013-03-20 14:49:00,
2013-03-20 10:54:00,53.2,26.2,30.09,WNW,286,0.0,8.0,35,0.00,,,0.00,meteohub,2013-03-20 14:54:00,
2013-03-20 10:59:00,53.2,26.2,30.09,WNW,286,0.0,4.0,35,0.00,,,0.00,meteohub,2013-03-20 14:59:00,
2013-03-20 11:04:00,53.2,24.1,30.09,NW,313,0.0,4.0,32,0.00,,,0.00,meteohub,2013-03-20 15:04:00,
2013-03-20 11:09:00,53.8,26.1,30.08,WNW,299,0.0,1.0,34,0.00,,,0.00,meteohub,2013-03-20 15:09:00,
2013-03-20 11:14:00,54.1,24.1,30.08,East,93,0.0,1.0,31,0.00,,,0.00,meteohub,2013-03-20 15:14:00,
2013-03-20 11:19:00,54.0,24.1,30.08,ENE,73,2.0,6.0,31,0.00,,,0.00,meteohub,2013-03-20 15:19:00,
2013-03-20 11:24:00,53.4,25.0,30.08,ENE,75,0.0,6.0,33,0.00,,,0.00,meteohub,2013-03-20 15:24:00,
2013-03-20 11:29:00,53.4,21.9,30.08,ESE,103,5.0,6.0,29,0.00,,,0.00,meteohub,2013-03-20 15:29:00,
2013-03-20 11:34:00,53.2,23.4,30.07,NE,44,0.0,6.0,31,0.00,,,0.00,meteohub,2013-03-20 15:34:00,
2013-03-20 11:39:00,53.8,26.1,30.08,ENE,61,0.0,10.0,34,0.00,,,0.00,meteohub,2013-03-20 15:39:00,
2013-03-20 11:44:00,53.8,22.3,30.08,SE,127,0.0,10.0,29,0.00,,,0.00,meteohub,2013-03-20 15:44:00,
2013-03-20 11:49:00,53.4,23.5,30.07,ENE,62,0.0,6.0,31,0.00,,,0.00,meteohub,2013-03-20 15:49:00,
2013-03-20 11:54:00,53.1,23.2,30.07,East,80,2.0,6.0,31,0.00,,,0.00,meteohub,2013-03-20 15:54:00,
2013-03-20 11:59:00,53.1,24.8,30.07,West,271,1.0,8.0,33,0.00,,,0.00,meteohub,2013-03-20 15:59:00,
2013-03-20 12:04:00,53.4,21.9,30.07,ENE,61,0.0,8.0,29,0.00,,,0.00,meteohub,2013-03-20 16:04:00,
2013-03-20 12:09:00,54.1,23.4,30.07,NE,48,0.0,8.0,30,0.00,,,0.00,meteohub,2013-03-20 16:09:00,
2013-03-20 12:14:00,55.4,24.4,30.06,NW,307,2.0,4.0,30,0.00,,,0.00,meteohub,2013-03-20 16:14:00,
2013-03-20 12:20:00,54.9,21.6,30.06,ENE,59,3.0,4.0,27,0.00,,,0.00,meteohub,2013-03-20 16:20:00,
2013-03-20 12:25:00,54.9,24.8,30.06,WNW,302,0.0,4.0,31,0.00,,,0.00,meteohub,2013-03-20 16:25:00,
2013-03-20 12:30:00,55.0,21.7,30.06,SE,144,0.0,4.0,27,0.00,,,0.00,meteohub,2013-03-20 16:30:00,
2013-03-20 12:35:00,54.9,19.8,30.05,West,281,0.0,7.0,25,0.00,,,0.00,meteohub,2013-03-20 16:35:00,
2013-03-20 12:40:00,55.6,24.6,30.05,WNW,285,0.0,7.0,30,0.00,,,0.00,meteohub,2013-03-20 16:40:00,
2013-03-20 12:45:00,55.8,19.6,30.05,SSW,212,0.0,7.0,24,0.00,,,0.00,meteohub,2013-03-20 16:45:00,
2013-03-20 12:50:00,56.1,21.7,30.05,NNE,24,0.0,7.0,26,0.00,,,0.00,meteohub,2013-03-20 16:50:00,
2013-03-20 12:55:00,55.9,20.7,30.05,East,96,9.0,9.0,25,0.00,,,0.00,meteohub,2013-03-20 16:55:00,
2013-03-20 13:00:00,54.9,21.6,30.04,ENE,71,0.0,4.0,27,0.00,,,0.00,meteohub,2013-03-20 17:00:00,
2013-03-20 13:05:00,55.6,24.6,30.04,NNE,14,0.0,4.0,30,0.00,,,0.00,meteohub,2013-03-20 17:05:00,
2013-03-20 13:10:00,56.1,23.4,30.04,North,355,0.0,11.0,28,0.00,,,0.00,meteohub,2013-03-20 17:10:00,
2013-03-20 13:15:00,56.8,25.0,30.04,ENE,75,0.0,11.0,29,0.00,,,0.00,meteohub,2013-03-20 17:15:00,
2013-03-20 13:20:00,56.8,22.3,30.03,NW,304,3.0,6.0,26,0.00,,,0.00,meteohub,2013-03-20 17:20:00,
2013-03-20 13:25:00,57.0,25.0,30.03,WSW,255,2.0,6.0,29,0.00,,,0.00,meteohub,2013-03-20 17:25:00,
2013-03-20 13:30:00,57.4,21.9,30.03,WNW,284,0.0,6.0,25,0.00,,,0.00,meteohub,2013-03-20 17:30:00,
2013-03-20 13:35:00,56.5,22.8,30.03,WNW,302,0.0,6.0,27,0.00,,,0.00,meteohub,2013-03-20 17:35:00,
2013-03-20 13:40:00,56.7,23.0,30.02,West,272,6.0,8.0,27,0.00,,,0.00,meteohub,2013-03-20 17:40:00,
2013-03-20 13:45:00,56.5,22.8,30.02,West,273,0.0,8.0,27,0.00,,,0.00,meteohub,2013-03-20 17:45:00,
2013-03-20 13:50:00,57.6,21.9,30.02,ENE,76,2.0,8.0,25,0.00,,,0.00,meteohub,2013-03-20 17:50:00,
2013-03-20 13:55:00,57.7,20.1,30.01,East,97,0.0,8.0,23,0.00,,,0.00,meteohub,2013-03-20 17:55:00,
2013-03-20 14:00:00,57.6,21.0,30.01,ENE,68,0.0,7.0,24,0.00,,,0.00,meteohub,2013-03-20 18:00:00,
2013-03-20 14:05:00,57.6,21.9,30.01,West,259,4.0,7.0,25,0.00,,,0.00,meteohub,2013-03-20 18:05:00,
2013-03-20 14:10:00,57.4,23.7,30.01,West,275,0.0,7.0,27,0.00,,,0.00,meteohub,2013-03-20 18:10:00,
2013-03-20 14:15:00,57.9,21.4,30.01,NE,34,0.0,6.0,24,0.00,,,0.00,meteohub,2013-03-20 18:15:00,
2013-03-20 14:20:00,57.6,19.0,30.00,West,281,0.0,5.0,22,0.00,,,0.00,meteohub,2013-03-20 18:20:00,
2013-03-20 14:25:00,56.8,19.4,30.00,West,261,0.0,5.0,23,0.00,,,0.00,meteohub,2013-03-20 18:25:00,
2013-03-20 14:30:00,57.0,21.6,29.99,West,281,0.0,5.0,25,0.00,,,0.00,meteohub,2013-03-20 18:30:00,
2013-03-20 14:35:00,57.6,21.9,29.99,NW,309,0.0,5.0,25,0.00,,,0.00,meteohub,2013-03-20 18:35:00,
2013-03-20 14:40:00,57.4,22.8,29.99,East,86,0.0,4.0,26,0.00,,,0.00,meteohub,2013-03-20 18:40:00,
2013-03-20 14:45:00,57.6,21.0,29.98,East,97,0.0,4.0,24,0.00,,,0.00,meteohub,2013-03-20 18:45:00,
2013-03-20 14:50:00,57.4,24.6,29.98,ESE,117,5.0,5.0,28,0.00,,,0.00,meteohub,2013-03-20 18:50:00,
2013-03-20 14:55:00,56.5,27.7,29.97,ESE,112,5.0,5.0,33,0.00,,,0.00,meteohub,2013-03-20 18:55:00,
2013-03-20 15:00:00,56.1,27.3,29.97,ESE,104,4.0,11.0,33,0.00,,,0.00,meteohub,2013-03-20 19:00:00,
2013-03-20 15:05:00,55.8,26.4,29.96,East,81,5.0,11.0,32,0.00,,,0.00,meteohub,2013-03-20 19:05:00,
2013-03-20 15:10:00,55.2,25.9,29.96,ESE,115,5.0,11.0,32,0.00,,,0.00,meteohub,2013-03-20 19:10:00,
2013-03-20 15:15:00,55.0,28.6,29.95,ESE,123,4.0,11.0,36,0.00,,,0.00,meteohub,2013-03-20 19:15:00,
2013-03-20 15:20:00,55.2,26.6,29.95,ESE,120,6.0,11.0,33,0.00,,,0.00,meteohub,2013-03-20 19:20:00,
2013-03-20 15:25:00,54.9,27.7,29.94,East,92,2.0,11.0,35,0.00,,,0.00,meteohub,2013-03-20 19:25:00,
2013-03-20 15:30:00,54.9,27.7,29.94,ENE,67,4.0,9.0,35,0.00,,,0.00,meteohub,2013-03-20 19:30:00,
2013-03-20 15:35:00,54.7,27.5,29.94,East,90,2.0,9.0,35,0.00,,,0.00,meteohub,2013-03-20 19:35:00,
2013-03-20 15:40:00,54.3,27.3,29.94,ENE,76,2.0,9.0,35,0.00,,,0.00,meteohub,2013-03-20 19:40:00,
2013-03-20 15:45:00,54.1,28.4,29.93,ESE,123,2.0,9.0,37,0.00,,,0.00,meteohub,2013-03-20 19:45:00,
2013-03-20 15:50:00,54.1,30.4,29.93,East,82,2.0,7.0,40,0.00,,,0.00,meteohub,2013-03-20 19:50:00,
2013-03-20 15:55:00,54.1,30.9,29.92,East,82,2.0,7.0,41,0.00,,,0.00,meteohub,2013-03-20 19:55:00,
2013-03-20 16:00:00,53.6,29.8,29.92,ESE,118,2.0,6.0,40,0.00,,,0.00,meteohub,2013-03-20 20:00:00,
2013-03-20 16:05:00,53.4,30.4,29.92,ENE,76,4.0,6.0,41,0.00,,,0.00,meteohub,2013-03-20 20:05:00,
2013-03-20 16:10:00,53.4,29.1,29.91,ENE,75,6.0,6.0,39,0.00,,,0.00,meteohub,2013-03-20 20:10:00,
2013-03-20 16:15:00,53.4,29.1,29.91,East,92,0.0,7.0,39,0.00,,,0.00,meteohub,2013-03-20 20:15:00,
2013-03-20 16:20:00,53.4,29.1,29.91,East,90,0.0,7.0,39,0.00,,,0.00,meteohub,2013-03-20 20:20:00,
2013-03-20 16:25:00,53.6,29.3,29.91,East,85,0.0,7.0,39,0.00,,,0.00,meteohub,2013-03-20 20:25:00,
2013-03-20 16:30:00,53.4,30.4,29.91,ENE,75,4.0,8.0,41,0.00,,,0.00,meteohub,2013-03-20 20:30:00,
2013-03-20 16:35:00,53.2,31.3,29.90,East,81,2.0,8.0,43,0.00,,,0.00,meteohub,2013-03-20 20:35:00,
2013-03-20 16:40:00,53.2,30.7,29.90,East,90,0.0,6.0,42,0.00,,,0.00,meteohub,2013-03-20 20:40:00,
2013-03-20 16:45:00,53.1,30.6,29.90,ESE,112,4.0,6.0,42,0.00,,,0.00,meteohub,2013-03-20 20:45:00,
2013-03-20 16:50:00,52.5,30.0,29.89,East,84,3.0,6.0,42,0.00,,,0.00,meteohub,2013-03-20 20:50:00,
2013-03-20 16:55:00,52.3,31.1,29.89,ENE,71,3.0,6.0,44,0.00,,,0.00,meteohub,2013-03-20 20:55:00,
2013-03-20 17:00:00,52.2,31.5,29.89,ENE,71,0.0,6.0,45,0.00,,,0.00,meteohub,2013-03-20 21:00:00,
2013-03-20 17:05:00,52.2,32.0,29.89,ESE,107,0.0,6.0,46,0.00,,,0.00,meteohub,2013-03-20 21:05:00,
2013-03-20 17:10:00,52.0,31.8,29.89,ESE,116,0.0,6.0,46,0.00,,,0.00,meteohub,2013-03-20 21:10:00,
2013-03-20 17:15:00,52.0,31.3,29.89,East,100,1.0,6.0,45,0.00,,,0.00,meteohub,2013-03-20 21:15:00,
2013-03-20 17:20:00,51.8,32.2,29.88,ENE,77,0.0,6.0,47,0.00,,,0.00,meteohub,2013-03-20 21:20:00,
2013-03-20 17:25:00,51.6,32.5,29.88,SE,141,4.0,6.0,48,0.00,,,0.00,meteohub,2013-03-20 21:25:00,
2013-03-20 17:30:00,51.6,32.0,29.88,ESE,110,0.0,8.0,47,0.00,,,0.00,meteohub,2013-03-20 21:30:00,
2013-03-20 17:35:00,51.6,33.1,29.88,ESE,103,0.0,8.0,49,0.00,,,0.00,meteohub,2013-03-20 21:35:00,
2013-03-20 17:40:00,51.6,32.5,29.88,ESE,103,0.0,8.0,48,0.00,,,0.00,meteohub,2013-03-20 21:40:00,
2013-03-20 17:45:00,51.8,33.3,29.88,East,96,0.0,8.0,49,0.00,,,0.00,meteohub,2013-03-20 21:45:00,
2013-03-20 17:50:00,51.6,32.0,29.88,East,98,0.0,6.0,47,0.00,,,0.00,meteohub,2013-03-20 21:50:00,
2013-03-20 17:55:00,51.6,32.0,29.88,NE,40,0.0,6.0,47,0.00,,,0.00,meteohub,2013-03-20 21:55:00,
2013-03-20 18:00:00,51.6,32.5,29.88,East,94,0.0,8.0,48,0.00,,,0.00,meteohub,2013-03-20 22:00:00,
2013-03-20 18:05:00,51.4,31.8,29.88,SE,130,4.0,8.0,47,0.00,,,0.00,meteohub,2013-03-20 22:05:00,
2013-03-20 18:10:00,51.4,31.8,29.88,East,93,0.0,8.0,47,0.00,,,0.00,meteohub,2013-03-20 22:10:00,
2013-03-20 18:15:00,51.4,32.4,29.88,East,92,0.0,8.0,48,0.00,,,0.00,meteohub,2013-03-20 22:15:00,
2013-03-20 18:20:00,51.4,32.4,29.88,ESE,103,0.0,8.0,48,0.00,,,0.00,meteohub,2013-03-20 22:20:00,
2013-03-20 18:25:00,51.4,32.9,29.88,ESE,109,0.0,8.0,49,0.00,,,0.00,meteohub,2013-03-20 22:25:00,
2013-03-20 18:30:00,51.4,33.4,29.88,SE,126,0.0,8.0,50,0.00,,,0.00,meteohub,2013-03-20 22:30:00,
2013-03-20 18:35:00,51.3,31.6,29.88,SE,138,0.0,0.0,47,0.00,,,0.00,meteohub,2013-03-20 22:35:00,
2013-03-20 18:40:00,51.3,31.6,29.89,ESE,118,0.0,0.0,47,0.00,,,0.00,meteohub,2013-03-20 22:40:00,
2013-03-20 18:45:00,51.3,32.7,29.88,ESE,123,0.0,0.0,49,0.00,,,0.00,meteohub,2013-03-20 22:45:00,
2013-03-20 18:50:00,51.3,33.3,29.88,ESE,120,0.0,0.0,50,0.00,,,0.00,meteohub,2013-03-20 22:50:00,
2013-03-20 18:55:00,51.1,32.5,29.89,ESE,120,0.0,0.0,49,0.00,,,0.00,meteohub,2013-03-20 22:55:00,
2013-03-20 19:00:00,51.1,33.1,29.89,ESE,120,0.0,0.0,50,0.00,,,0.00,meteohub,2013-03-20 23:00:00,
2013-03-20 19:05:00,51.1,32.5,29.89,SE,131,0.0,0.0,49,0.00,,,0.00,meteohub,2013-03-20 23:05:00,
2013-03-20 19:10:00,50.9,32.4,29.89,SE,129,0.0,0.0,49,0.00,,,0.00,meteohub,2013-03-20 23:10:00,
2013-03-20 19:15:00,50.9,34.0,29.88,SE,129,0.0,0.0,52,0.00,,,0.00,meteohub,2013-03-20 23:15:00,
2013-03-20 19:20:00,50.7,33.3,29.89,SE,129,0.0,0.0,51,0.00,,,0.00,meteohub,2013-03-20 23:20:00,
2013-03-20 19:25:00,50.5,34.0,29.89,SE,129,0.0,0.0,53,0.00,,,0.00,meteohub,2013-03-20 23:25:00,
2013-03-20 19:30:00,50.5,34.0,29.89,SE,129,0.0,0.0,53,0.00,,,0.00,meteohub,2013-03-20 23:30:00,
2013-03-20 19:35:00,50.4,37.0,29.89,SE,129,0.0,0.0,60,0.00,,,0.00,meteohub,2013-03-20 23:35:00,
2013-03-20 19:40:00,49.8,37.8,29.88,SE,129,0.0,0.0,63,0.00,,,0.00,meteohub,2013-03-20 23:40:00,
2013-03-20 19:45:00,49.5,37.0,29.88,SE,129,0.0,0.0,62,0.00,,,0.00,meteohub,2013-03-20 23:45:00,
2013-03-20 19:50:00,49.1,37.0,29.88,SE,129,0.0,0.0,63,0.00,,,0.00,meteohub,2013-03-20 23:50:00,
2013-03-20 19:55:00,48.4,36.7,29.88,SE,129,0.0,0.0,64,0.00,,,0.00,meteohub,2013-03-20 23:55:00,
2013-03-20 20:00:00,47.8,36.7,29.88,SE,129,0.0,0.0,65,0.00,,,0.00,meteohub,2013-03-21 00:00:00,
2013-03-20 20:05:00,47.7,37.2,29.88,SE,129,0.0,0.0,67,0.00,,,0.00,meteohub,2013-03-21 00:05:00,
2013-03-20 20:10:00,47.3,36.9,29.87,SE,129,0.0,0.0,67,0.00,,,0.00,meteohub,2013-03-21 00:10:00,
2013-03-20 20:15:00,46.9,37.2,29.87,SE,129,0.0,0.0,69,0.00,,,0.00,meteohub,2013-03-21 00:15:00,
2013-03-20 20:20:00,46.8,37.6,29.87,SE,129,0.0,0.0,70,0.00,,,0.00,meteohub,2013-03-21 00:20:00,
2013-03-20 20:25:00,46.6,37.8,29.86,SE,129,0.0,0.0,71,0.00,,,0.00,meteohub,2013-03-21 00:25:00,
2013-03-20 20:30:00,46.2,37.8,29.86,SE,129,0.0,0.0,72,0.00,,,0.00,meteohub,2013-03-21 00:30:00,
2013-03-20 20:35:00,46.0,37.6,29.86,SE,129,0.0,0.0,72,0.00,,,0.00,meteohub,2013-03-21 00:35:00,
2013-03-20 20:40:00,45.9,37.4,29.86,SE,129,0.0,0.0,72,0.00,,,0.00,meteohub,2013-03-21 00:40:00,
2013-03-20 20:45:00,45.7,37.6,29.86,SE,129,0.0,0.0,73,0.00,,,0.00,meteohub,2013-03-21 00:45:00,
2013-03-20 20:50:00,45.3,37.6,29.86,SE,129,0.0,0.0,74,0.00,,,0.00,meteohub,2013-03-21 00:50:00,
2013-03-20 20:55:00,45.1,37.8,29.85,SE,129,0.0,0.0,75,0.00,,,0.00,meteohub,2013-03-21 00:55:00,
2013-03-20 21:00:00,45.0,37.9,29.85,SE,129,0.0,0.0,76,0.00,,,0.00,meteohub,2013-03-21 01:00:00,
2013-03-20 21:05:00,45.0,37.9,29.85,SE,129,0.0,0.0,76,0.00,,,0.00,meteohub,2013-03-21 01:05:00,
2013-03-20 21:10:00,44.8,37.9,29.85,SE,129,0.0,0.0,77,0.00,,,0.00,meteohub,2013-03-21 01:10:00,
2013-03-20 21:15:00,44.4,37.6,29.85,SE,129,0.0,0.0,77,0.00,,,0.00,meteohub,2013-03-21 01:15:00,
2013-03-20 21:21:00,44.4,37.6,29.84,SE,129,0.0,0.0,77,0.00,,,0.00,meteohub,2013-03-21 01:21:00,
2013-03-20 21:26:00,44.2,37.6,29.84,SE,129,0.0,0.0,77,0.00,,,0.00,meteohub,2013-03-21 01:26:00,
2013-03-20 21:30:00,44.2,38.1,29.84,SE,129,0.0,0.0,79,0.00,,,0.00,meteohub,2013-03-21 01:30:00,
2013-03-20 21:36:00,44.1,37.9,29.84,SE,129,0.0,0.0,79,0.00,,,0.00,meteohub,2013-03-21 01:36:00,
2013-03-20 21:41:00,43.9,38.1,29.84,SE,129,0.0,0.0,80,0.00,,,0.00,meteohub,2013-03-21 01:41:00,
2013-03-20 21:46:00,43.5,37.8,29.84,SE,129,0.0,0.0,80,0.00,,,0.00,meteohub,2013-03-21 01:46:00,
2013-03-20 21:51:00,43.2,37.8,29.83,SE,129,0.0,0.0,81,0.00,,,0.00,meteohub,2013-03-21 01:51:00,
2013-03-20 21:56:00,43.0,37.6,29.83,SE,129,0.0,0.0,81,0.00,,,0.00,meteohub,2013-03-21 01:56:00,
2013-03-20 22:01:00,42.4,37.0,29.84,SE,129,0.0,0.0,81,0.00,,,0.00,meteohub,2013-03-21 02:01:00,
2013-03-20 22:06:00,41.9,36.5,29.83,SE,129,0.0,0.0,81,0.00,,,0.00,meteohub,2013-03-21 02:06:00,
2013-03-20 22:11:00,41.4,36.5,29.83,SE,129,0.0,0.0,83,0.00,,,0.00,meteohub,2013-03-21 02:11:00,
2013-03-20 22:16:00,41.0,36.5,29.83,SE,129,0.0,0.0,84,0.00,,,0.00,meteohub,2013-03-21 02:16:00,
2013-03-20 22:21:00,40.5,35.8,29.83,SE,129,0.0,0.0,83,0.00,,,0.00,meteohub,2013-03-21 02:21:00,
2013-03-20 22:26:00,39.9,35.2,29.83,SE,129,0.0,0.0,83,0.00,,,0.00,meteohub,2013-03-21 02:26:00,
2013-03-20 22:31:00,39.6,35.1,29.83,SE,129,0.0,0.0,84,0.00,,,0.00,meteohub,2013-03-21 02:31:00,
2013-03-20 22:36:00,39.0,34.5,29.83,SE,129,0.0,0.0,84,0.00,,,0.00,meteohub,2013-03-21 02:36:00,
2013-03-20 22:42:00,38.7,34.5,29.83,SE,129,0.0,0.0,85,0.00,,,0.00,meteohub,2013-03-21 02:42:00,
2013-03-20 22:47:00,38.1,34.3,29.83,SE,129,0.0,0.0,86,0.00,,,0.00,meteohub,2013-03-21 02:47:00,
2013-03-20 22:52:00,37.8,33.6,29.83,SE,129,0.0,0.0,85,0.00,,,0.00,meteohub,2013-03-21 02:52:00,
2013-03-20 22:57:00,37.2,33.4,29.82,SE,129,0.0,0.0,86,0.00,,,0.00,meteohub,2013-03-21 02:57:00,
2013-03-20 23:02:00,36.9,33.1,29.83,SE,129,0.0,0.0,86,0.00,,,0.00,meteohub,2013-03-21 03:02:00,
2013-03-20 23:07:00,36.5,33.1,29.82,SE,129,0.0,0.0,87,0.00,,,0.00,meteohub,2013-03-21 03:07:00,
2013-03-20 23:12:00,36.1,32.7,29.82,SE,129,0.0,0.0,87,0.00,,,0.00,meteohub,2013-03-21 03:12:00,
2013-03-20 23:17:00,36.1,32.9,29.82,SE,129,0.0,0.0,88,0.00,,,0.00,meteohub,2013-03-21 03:17:00,
2013-03-20 23:22:00,36.0,33.1,29.81,SE,129,0.0,0.0,89,0.00,,,0.00,meteohub,2013-03-21 03:22:00,
2013-03-20 23:27:00,35.6,32.7,29.82,SE,129,0.0,0.0,89,0.00,,,0.00,meteohub,2013-03-21 03:27:00,
2013-03-20 23:32:00,35.2,32.0,29.81,SE,129,0.0,0.0,88,0.00,,,0.00,meteohub,2013-03-21 03:32:00,
2013-03-20 23:37:00,34.9,31.6,29.81,SE,129,0.0,0.0,88,0.00,,,0.00,meteohub,2013-03-21 03:37:00,
2013-03-20 23:42:00,34.5,31.6,29.81,SE,129,0.0,0.0,89,0.00,,,0.00,meteohub,2013-03-21 03:42:00,
2013-03-20 23:47:00,34.3,31.5,29.81,SE,129,0.0,0.0,89,0.00,,,0.00,meteohub,2013-03-21 03:47:00,
2013-03-20 23:52:00,34.2,31.3,29.80,SE,129,0.0,0.0,89,0.00,,,0.00,meteohub,2013-03-21 03:52:00,
2013-03-20 23:57:00,34.3,32.0,29.80,SE,129,0.0,0.0,91,0.00,,,0.00,meteohub,2013-03-21 03:57:00,